Tracking 20942 objects as of 14-Jul-2020
HD Live streaming from Space Station
objects crossing your sky now

COSMOS 489

Track COSMOS 489 now!
10-day predictions
COSMOS 489 is classified as:


NORAD ID: 6019
Int'l Code: 1972-035A
Perigee: 967.6 km
Apogee: 1,003.3 km
Inclination: 74.0 °
Period: 104.7 minutes
Semi major axis: 7356 km
RCS: 1.7983 m2 (large)
Launch date: May 6, 1972
Source: Commonwealth of Independent States (former USSR) (CIS)
Launch site: PLESETSK MISSILE AND SPACE COMPLEX (PKMTR)
aabbcc
Your satellite tracking list
Your tracking list is empty




NASA's NSSDC Master Catalog

Two Line Element Set (TLE):
1  6019U 72035A   20195.66491500 -.00000011  00000-0  12394-4 0  9997
2  6019  74.0217 327.0502 0024277  12.1303 358.8483 13.75937578419446
Source of the keplerian elements: AFSPC